Weather Roundup
Issued by NWS

Home | Current Version | Previous Version | Text Only | Print | Product List | Glossary On
Versions: 1 2 3 4 5 6 7 8 9 10 11 12 13 14 15 16 17 18 19 20 21 22 23 24 25 26 27 28 29 30 31 32 33 34 35 36 37 38 39 40 41 42 43 44 45 46 47 48 49 50
646
NZUS93 KARX 262059
HRRWXR

CURRENT HOURLY OBSERVATIONS ACROSS
MUCH OF THE UPPER MISSISSIPPI VALLEY
NATIONAL WEATHER SERVICE LA CROSSE WI
400 PM CDT SUN MAR 26 2017


...SOUTHEAST MINNESOTA...


CITY           SKY/WX    TMP DP  RH WIND       PRES   REMARKS
ROCHESTER      CLOUDY    40  39  97 N9        29.87R WCI  34
ROCHESTER/MAYO CLOUDY    39  40 100 NW3       29.87S
WINONA         CLOUDY    43  37  81 CALM      29.88S
AUSTIN         CLOUDY    41  37  87 N8        29.86S
ALBERT LEA     CLOUDY    41  39  93 N8        29.88R FOG
DODGE CENTER   CLOUDY    39  39 100 N8        29.87S WCI  34
PRESTON        CLOUDY    41  38  88 N8        29.86F
OWATONNA       CLOUDY    43  37  81 N7        29.89R
FARIBAULT      CLOUDY    41  39  93 NW6       29.90R
$$

...ELSEWHERE IN MINNESOTA...


CITY           SKY/WX    TMP DP  RH WIND       PRES   REMARKS
MINNEAPOLIS    CLOUDY    44  36  73 N6        29.90S
INTNL FALLS    CLOUDY    46  32  58 CALM      29.92F
DULUTH         FOG       34  33  96 SE6       29.91S VSB 1/8 WCI  29
RED WING       CLOUDY    43  37  81 N3        29.89R
REDWOOD FALLS  CLOUDY    45  36  70 N5        29.91S
MANKATO        CLOUDY    42  38  85 N7        29.91R
WORTHINGTON    CLOUDY    41  37  86 NW9       29.92S
FAIRMONT       CLOUDY    41  38  89 N9        29.91R
$$

...SOUTHWEST WISCONSIN...


CITY           SKY/WX    TMP DP  RH WIND       PRES   REMARKS
LA CROSSE      CLOUDY    43  39  86 NW8       29.87R FOG
PRAIRIE DU CHI CLOUDY    43  42  97 NW7       29.85R
BOSCOBEL       CLOUDY    46  42  86 N3        29.85R
LONE ROCK      CLOUDY    45  41  87 NE6       29.84S FOG
PLATTEVILLE    CLOUDY    48  48 100 N5        29.83R
FORT MC COY    CLOUDY    41  39  94 NE3       29.86S
CAMP DOUGLAS   CLOUDY    39  39 100 CALM      29.85S
MAUSTON-NEW LI DRIZZLE   40  39  97 CALM      29.84F
VIROQUA        CLOUDY    41  41 100 NE3       29.84R
WIS DELLS      DRIZZLE   40  38  94 NE3       29.84S
$$

...ELSEWHERE IN WISCONSIN...


CITY           SKY/WX    TMP DP  RH WIND       PRES   REMARKS
MILWAUKEE      FOG       45  42  89 NE6       29.82S VSB 1
MADISON        LGT RAIN  46  43  89 N6        29.82S
GREEN BAY      LGT RAIN  38  38 100 NE10      29.86F WCI  31
EAU CLAIRE     NOT AVBL
BLACK RVR FLS  CLOUDY    40  40 100 NE3       29.85F
MEDFORD        DRIZZLE   38  37  94 E3        29.84F
WAUSAU         CLOUDY    39  37  92 E5        29.84R
WIS RAPIDS     CLOUDY    39  39 100 CALM      29.87R FOG
MARSHFIELD     CLOUDY    40  37  89 E3        29.83F
RICE LAKE      CLOUDY    43  38  82 CALM      29.89S
$$

...NORTHEAST IOWA...


CITY           SKY/WX    TMP DP  RH WIND       PRES   REMARKS
WATERLOO       CLOUDY    47  43  86 N7        29.85S
DUBUQUE        FOG       47  47 100 NW10      29.84R VSB 1/4
DECORAH        CLOUDY    43  41  93 N5        29.83F
MASON CITY     CLOUDY    44  40  85 N9        29.89R
CHARLES CITY   CLOUDY    46  45  93 N8        29.86S
OELWEIN        CLOUDY    45  45 100 NW6       29.86R
$$

...ELSEWHERE IN IOWA...


CITY           SKY/WX    TMP DP  RH WIND       PRES   REMARKS
DES MOINES     CLOUDY    48  44  86 W10       29.89S
IOWA CITY      CLOUDY    51  46  83 W8        29.86S
FORT DODGE     CLOUDY    45  39  81 NW6       29.90S
MARSHALLTOWN   CLOUDY    48  45  89 NW8       29.85S
CEDAR RAPIDS   CLOUDY    48  47  96 W10       29.83S
$$

...NORTHERN ILLINOIS...


CITY           SKY/WX    TMP DP  RH WIND       PRES   REMARKS
CHICAGO-OHARE  CLOUDY    62  50  64 SW13      29.79F
CHICAGO-MIDWAY CLOUDY    60  51  72 SW13G20   29.81S
MOLINE         CLOUDY    54  51  90 W7        29.82S FOG
ROCKFORD       CLOUDY    57  51  80 SW12      29.82S
PEORIA         CLOUDY    52  49  89 SW12      29.85R
$$

NOTE: "FAIR" INDICATES FEW OR NO CLOUDS BELOW 12,000 FEET WITH NO
SIGNIFICANT WEATHER AND/OR OBSTRUCTIONS TO VISIBILITY. WIND
SPEEDS ARE IN MILES-PER-HOUR.




USA.gov is the U.S. government's official web portal to all federal, state and local government web resources and services.